Location: Unspecified
(0.0000°N, 0.0000°E)
Time: 11:53:46
(UTC+00:00)

Envisat - Pass Details

Date: 22 January 2019
Orbit: 764 x 766 km, 98.2° (Epoch: 22 March)

Event Time Altitude Azimuth Distance (km) Brightness Sun altitude
Rises 19:53:58 0° 190° (S) 3,229 6.7 -24.0°
Reaches altitude 10° 19:56:36 10° 202° (SSW) 2,301 6.0 -24.6°
Maximum altitude 20:00:45 26° 258° (WSW) 1,474 5.1 -25.6°
Drops below altitude 10° 20:04:55 10° 313° (NW) 2,294 5.7 -26.6°
Sets 20:07:34 0° 326° (NW) 3,217 6.4 -27.2°
